Theta_e
321 312 314 326 326 326 328 329 330 329 335 336 336 333 331 332 334 335 332 331 331 325 324 323 322 322 320 318 319 319 319 319 319 318 318 318 317 316 315 315 317 317 316 316 314 313 312 310 310
319 312 325 330 328 331 328 326 328 335 337 337 337 336 334 336 336 336 335 335 329 326 324 324 322 322 319 318 319 319 319 319 319 319 320 320 320 319 317 316 317 319 320 320 320 322 319 315 312
312 325 324 326 328 327 328 331 335 337 338 337 336 335 333 336 337 335 334 335 333 328 324 324 323 321 320 319 319 319 319 319 320 320 321 321 321 321 320 317 316 318 323 324 324 323 325 325 324
314 324 326 325 330 330 330 331 333 336 336 336 337 333 332 336 336 336 334 333 334 331 325 324 323 322 321 320 320 320 319 319 320 321 321 321 322 322 322 321 317 316 323 325 326 324 326 327 325
326 328 323 325 327 329 329 331 332 335 336 336 336 333 331 334 336 336 334 332 331 332 331 327 323 323 322 321 320 320 319 320 320 320 321 321 322 322 322 322 321 318 321 327 325 323 326 326 329
325 325 324 326 327 328 328 329 331 336 336 336 335 334 331 332 332 332 333 334 333 332 331 332 330 323 322 321 320 320 319 319 320 320 321 321 322 322 322 322 322 321 324 326 324 321 320 319 323
328 323 323 325 326 327 328 329 330 332 335 333 332 331 331 332 332 332 333 333 333 334 332 332 333 327 321 321 321 321 320 319 319 320 320 321 321 321 321 322 322 323 326 328 327 326 324 321 320
329 324 326 323 326 326 327 328 329 330 332 331 332 331 331 332 332 332 333 332 334 335 334 334 334 333 330 322 321 321 320 319 319 320 320 320 321 321 321 321 322 324 326 329 329 329 329 328 324
332 328 325 324 325 326 327 328 331 330 332 331 332 332 332 333 332 333 333 333 335 335 335 335 334 334 334 331 326 321 321 320 319 319 320 320 321 321 322 322 323 328 326 330 331 331 330 329 327
330 332 330 324 324 324 325 326 327 329 330 332 332 332 332 332 333 333 333 333 332 332 333 334 334 334 334 334 333 328 321 321 320 320 319 320 321 322 322 323 326 330 330 332 332 332 331 329 328
332 333 332 331 329 326 326 327 328 329 329 331 331 331 331 332 332 332 332 331 331 329 329 329 332 334 334 334 334 334 328 322 321 321 320 320 320 321 322 323 330 332 332 333 334 333 330 330 329
327 330 332 331 330 329 329 329 328 328 329 331 331 330 330 330 331 331 332 331 331 331 330 329 328 330 333 334 334 334 334 332 326 321 321 321 320 320 321 323 329 330 330 333 334 332 331 330 329
324 325 327 327 327 329 329 329 328 329 330 330 330 330 329 329 328 329 329 331 331 331 330 330 328 328 328 330 331 334 335 335 333 326 322 322 322 322 321 324 332 334 332 332 334 332 331 331 330
319 321 324 325 324 324 324 326 327 327 327 327 328 328 328 328 329 329 329 329 331 330 330 330 329 328 327 327 328 330 334 335 336 334 329 324 328 327 324 330 333 338 332 335 334 332 331 330 330
317 317 319 319 320 321 324 324 325 326 326 326 328 328 329 329 329 329 329 329 329 330 330 329 329 328 328 327 328 331 334 335 336 336 337 338 337 331 334 335 334 331 333 335 333 332 332 330 330
318 319 319 320 321 322 322 324 325 327 327 327 327 327 328 328 328 329 329 328 328 328 329 328 329 329 328 327 328 333 335 336 336 338 339 340 339 338 337 335 333 331 333 335 334 334 332 331 331
315 321 322 322 322 322 322 324 324 326 326 326 327 327 327 328 328 328 329 329 329 328 327 328 329 329 329 328 331 333 335 337 338 340 341 341 340 338 335 334 332 332 331 334 334 332 332 331 330
317 318 321 322 323 323 323 323 323 324 324 325 325 325 326 326 327 328 329 329 328 327 327 327 329 329 329 330 333 336 339 340 341 342 342 340 336 334 332 333 333 333 331 331 332 331 330 330 328
317 319 321 322 322 323 323 323 323 323 324 323 324 325 325 327 328 328 329 329 327 328 327 327 329 330 329 331 336 339 342 342 342 339 337 335 335 333 333 333 334 332 332 332 330 329 330 328 329
313 314 316 316 317 320 322 323 323 323 323 324 324 325 325 326 327 327 329 327 327 328 329 329 330 331 331 334 337 340 342 342 342 340 338 337 333 333 332 333 334 334 331 329 329 329 329 329 328
313 313 315 316 316 316 316 316 317 318 319 320 321 323 325 327 327 328 328 329 328 328 328 330 331 332 334 338 341 342 341 340 340 341 338 334 333 332 333 334 332 331 327 329 329 329 328 328 327
313 314 314 314 314 315 316 316 317 318 319 319 320 321 323 324 324 325 327 328 327 328 331 332 332 333 338 342 342 341 339 340 337 333 333 333 332 333 334 334 332 329 329 329 328 327 327 326 325
311 314 315 315 315 314 315 314 316 317 319 318 319 322 323 324 326 326 328 328 328 330 332 333 333 337 339 340 339 337 334 334 335 335 334 334 334 334 333 331 330 329 329 327 327 326 324 325 325
309 313 313 314 313 315 315 315 317 316 317 317 320 323 324 324 324 326 327 328 331 334 334 333 333 337 339 338 337 335 337 336 334 334 333 332 332 331 331 328 328 329 327 326 325 326 327 325 325
307 307 310 312 315 316 315 315 317 317 318 317 317 320 322 324 325 327 327 331 334 335 335 334 336 338 337 335 336 335 335 333 334 333 332 331 332 329 328 328 329 327 326 326 325 326 325 325 324
305 306 310 313 315 316 316 317 317 316 317 318 319 320 322 324 324 328 331 334 336 336 335 335 336 337 337 335 335 334 334 334 333 332 331 330 330 328 327 327 326 325 325 324 324 324 325 325 325
309 306 307 310 312 313 316 316 318 318 318 318 318 320 323 324 327 334 336 337 337 337 336 334 335 337 337 335 334 334 333 333 328 328 330 329 328 326 326 325 326 324 324 325 325 325 326 325 326
310 311 309 308 313 314 315 317 318 317 318 317 318 318 322 332 336 337 338 338 338 337 335 333 336 336 335 335 333 329 325 329 331 330 330 329 327 325 325 326 325 325 325 326 326 325 326 326 326
312 312 310 308 310 314 315 316 316 317 317 318 321 321 331 337 337 338 338 338 337 336 333 335 335 333 333 331 327 328 330 330 330 331 329 328 329 327 326 326 324 327 327 326 326 325 326 324 327
312 313 312 309 309 312 315 315 316 315 316 318 320 333 336 337 338 338 338 337 338 335 335 334 333 333 332 329 330 330 328 329 330 330 329 328 327 327 325 325 326 327 327 327 324 325 325 324 325
Wind_Speed
4 4 7 4 2 3 3 6 4 9 3 3 11 13 7 3 5 4 22 20 22 15 19 18 16 16 15 14 14 13 11 9 8 7 5 5 4 4 3 2 1 1 2 4 6 6 6 7 9
5 7 5 1 3 1 4 4 6 3 7 16 17 10 5 1 16 16 24 21 15 14 17 17 17 16 16 16 15 14 13 12 11 9 6 4 2 3 4 4 3 2 2 4 6 7 6 6 7
8 8 3 3 3 5 4 4 2 2 1 6 1 8 8 4 14 18 13 18 17 15 16 17 17 17 17 17 16 16 16 15 13 11 8 5 2 1 3 4 5 5 4 5 6 7 7 7 7
9 4 2 2 7 7 6 6 8 4 6 1 8 4 3 14 23 15 15 14 15 15 16 16 18 19 18 19 20 20 20 19 16 13 11 8 5 2 2 4 5 5 6 6 8 9 8 8 10
9 2 1 3 6 8 4 13 22 5 4 9 13 2 3 15 17 22 16 12 12 17 16 16 20 21 21 22 23 24 23 22 19 16 13 11 8 6 4 5 7 6 6 7 9 10 11 12 11
3 2 1 5 6 10 3 15 9 5 8 9 8 2 5 14 13 13 14 11 9 9 12 16 19 24 25 24 25 26 25 24 22 20 17 15 12 9 7 7 8 7 6 8 10 10 11 12 13
3 2 4 4 6 11 3 10 5 14 16 4 8 7 10 18 11 10 7 7 15 18 17 17 20 24 27 26 27 28 28 27 24 23 21 18 15 13 10 9 9 10 7 6 8 9 10 12 13
6 3 4 4 4 10 4 12 11 15 8 3 8 5 6 17 14 10 8 10 17 22 25 24 24 25 28 29 30 30 30 30 27 26 25 22 19 17 14 12 11 11 9 7 8 8 11 13 14
14 2 5 6 5 8 10 15 29 21 16 7 4 3 9 8 9 17 14 21 25 25 27 33 32 30 31 30 31 33 33 32 31 30 29 26 25 21 17 14 13 11 11 8 8 8 10 12 14
8 7 8 8 7 6 19 12 33 12 19 17 8 12 16 25 11 21 16 20 21 25 29 30 30 32 33 34 34 35 37 37 36 36 34 31 28 24 19 16 14 13 10 10 11 11 11 10 8
9 11 13 18 20 19 21 21 25 18 13 18 8 21 16 21 17 17 24 20 17 17 14 18 23 32 36 36 36 37 39 40 40 39 37 35 31 26 23 18 16 15 11 13 13 13 12 9 9
9 18 23 27 28 25 18 27 23 26 24 27 28 27 26 18 19 24 20 24 23 23 23 22 20 21 28 33 35 39 41 40 41 42 40 38 34 30 26 20 19 17 14 17 15 15 13 11 10
19 10 20 24 27 28 30 25 24 32 39 35 33 33 30 27 32 32 30 28 26 25 25 26 22 18 20 28 32 38 40 40 37 39 40 38 36 32 26 21 20 17 17 19 17 16 15 15 14
5 11 24 24 26 28 21 25 29 33 37 36 36 37 38 38 36 34 34 31 29 31 30 26 22 19 19 22 26 30 35 38 37 33 32 33 31 31 25 20 18 20 20 18 18 17 18 18 18
19 12 16 21 14 9 17 21 25 36 32 33 33 27 31 38 38 35 31 30 28 29 30 26 19 20 22 25 24 26 31 38 39 31 26 26 23 20 19 18 18 21 19 19 18 20 20 20 21
4 5 17 16 16 12 8 32 16 14 19 27 32 38 44 44 45 47 42 39 33 27 23 22 20 21 22 24 24 25 29 37 37 29 25 24 20 19 18 18 18 17 21 21 21 22 23 22 22
6 17 19 19 7 4 14 37 14 26 29 29 31 39 41 39 42 44 44 41 32 24 24 26 22 19 21 23 24 25 30 35 30 25 22 23 22 20 16 20 15 17 21 24 24 23 23 22 22
12 20 19 18 6 14 19 32 21 32 35 34 40 43 44 46 46 44 44 42 27 27 30 26 20 21 20 22 25 28 31 30 26 24 23 22 19 16 18 15 16 17 17 20 23 23 22 20 18
7 17 8 5 11 14 19 23 18 20 18 21 30 32 39 42 42 44 31 33 28 24 28 24 21 21 23 25 31 32 29 25 23 20 21 21 20 18 14 15 16 17 18 20 21 20 20 19 16
13 15 14 9 9 9 13 22 23 22 19 29 33 33 38 39 41 43 34 32 27 24 20 21 21 22 24 27 30 34 32 24 21 20 19 18 13 13 15 16 17 17 21 22 21 20 18 16 16
16 18 14 10 10 22 13 12 17 20 17 28 30 35 35 29 32 35 37 31 29 24 22 22 24 23 21 23 24 24 24 21 21 21 19 17 16 16 17 17 17 18 20 20 16 16 15 15 15
19 9 12 15 11 16 7 17 21 22 25 21 21 30 34 35 40 39 38 34 28 25 22 22 20 19 19 21 20 20 20 23 20 15 15 16 17 19 19 20 17 17 17 17 14 14 12 13 14
20 11 13 14 10 16 17 7 29 7 18 12 14 23 34 39 37 34 33 31 27 23 23 20 17 18 18 17 15 18 19 16 14 17 13 13 15 17 15 17 18 15 15 12 9 9 10 12 14
5 9 12 16 3 11 9 10 28 16 22 18 7 29 32 32 35 29 19 20 25 24 22 18 17 20 19 18 20 18 19 19 14 15 15 13 13 14 15 15 11 11 8 7 7 8 10 10 12
5 2 2 3 7 15 11 9 23 7 5 10 14 25 35 35 31 22 20 25 29 26 22 19 22 24 22 22 20 19 19 16 15 14 12 12 12 15 13 12 8 6 5 6 7 9 10 11 11
6 9 5 7 4 8 7 12 16 16 26 31 36 35 37 37 25 21 23 31 31 27 23 24 26 26 24 23 20 17 18 14 13 11 10 11 12 10 9 7 6 5 4 5 5 7 8 8 7
5 9 7 5 14 1 6 9 18 23 24 21 21 24 32 26 22 28 33 33 30 26 24 24 30 27 25 22 18 15 14 12 11 9 7 8 8 7 7 6 5 6 6 6 6 6 6 7 8
8 3 4 3 6 8 6 6 10 7 14 10 12 17 17 19 27 33 34 32 28 24 23 28 27 26 23 20 14 11 10 9 7 5 5 6 7 8 7 6 8 9 8 7 5 4 4 5 8
1 4 5 4 3 8 6 9 8 12 10 12 17 17 27 35 35 37 34 30 26 24 28 26 24 24 21 15 12 13 10 6 4 4 5 8 8 5 6 6 9 7 6 5 3 4 4 4 6
6 9 5 5 11 5 11 16 9 9 10 8 10 16 32 39 39 37 35 32 29 30 29 26 25 22 17 13 15 12 8 7 6 3 7 11 10 8 7 9 8 6 6 5 5 6 5 5 6
Wind_Direction
253 234 172 181 67 80 248 251 276 289 276 191 352 17 137 93 153 191 154 154 163 158 172 181 183 183 184 181 176 171 165 163 162 155 140 115 95 86 90 90 101 265 273 277 277 274 267 262 258
205 178 176 166 120 189 258 242 228 226 319 24 329 349 9 49 125 144 158 165 160 172 179 185 186 189 190 188 183 178 178 180 182 176 164 141 94 41 27 15 4 348 280 270 275 282 286 274 265
178 166 164 143 198 207 207 199 297 210 352 345 27 233 142 194 160 133 145 161 175 188 188 189 192 193 196 195 193 191 191 192 193 190 186 183 175 48 19 352 336 324 285 266 263 272 274 280 279
162 196 256 173 232 267 229 310 297 351 346 324 236 271 118 164 149 153 153 163 181 196 193 200 201 201 202 204 202 201 201 202 201 202 203 210 215 229 328 333 323 312 287 273 268 272 276 271 279
169 164 231 254 244 252 350 280 286 242 159 227 218 89 42 171 168 169 168 170 187 203 200 210 213 213 210 210 209 208 208 208 207 211 216 223 230 238 266 302 317 314 299 275 266 268 261 266 260
208 219 111 239 252 269 231 285 242 284 260 277 241 136 187 158 174 168 179 189 215 224 230 227 224 223 216 214 215 216 216 216 213 216 219 226 233 241 257 286 304 309 300 287 274 278 276 271 264
159 85 227 259 283 298 219 294 269 245 229 359 144 130 170 176 196 193 184 245 229 223 237 235 235 224 224 223 224 223 222 222 221 223 224 226 231 240 250 272 292 297 286 290 276 282 282 277 272
191 112 265 253 238 277 340 342 319 350 292 52 147 141 188 199 199 203 234 242 233 225 229 234 239 237 232 227 231 230 228 227 226 229 231 232 233 238 245 257 274 277 279 280 289 293 293 281 273
196 156 236 232 210 252 53 307 292 337 302 177 159 275 174 168 239 213 227 223 222 230 238 235 231 236 241 236 234 233 233 231 231 233 233 234 236 239 244 255 271 262 278 279 285 294 305 292 274
179 201 230 214 237 300 312 314 302 331 316 303 10 326 274 304 317 218 229 234 230 242 240 241 238 240 244 245 241 238 234 232 232 234 234 236 239 242 248 253 260 260 279 276 278 288 296 285 286
201 215 226 261 260 268 283 287 271 289 284 286 295 313 308 308 275 270 266 251 257 266 265 252 242 236 240 245 246 243 236 235 236 239 237 239 241 241 247 251 251 258 266 273 276 277 286 279 272
256 218 222 251 259 264 262 271 280 269 265 279 288 296 299 278 281 290 260 261 270 269 273 279 275 241 239 244 249 249 243 242 239 241 241 239 240 242 245 249 253 257 265 268 268 263 273 262 272
247 244 225 240 257 256 263 264 263 277 284 284 287 288 288 283 295 288 282 277 268 271 260 272 257 262 259 248 254 248 248 244 244 243 244 242 244 246 244 248 250 257 266 264 259 256 275 266 261
243 261 257 248 247 255 258 265 266 270 275 286 289 286 286 284 286 291 284 279 274 284 257 253 248 267 274 277 270 263 255 246 245 242 243 243 246 247 242 242 252 256 255 254 257 261 281 279 258
263 277 281 258 245 251 279 276 254 260 273 275 277 283 289 289 289 281 282 284 287 291 259 237 254 279 284 276 275 267 256 246 245 241 235 234 238 227 223 237 248 255 256 260 261 260 272 267 268
280 249 247 247 243 248 229 258 256 259 266 272 282 286 286 283 279 278 279 276 281 277 234 252 263 272 275 270 270 259 252 246 243 242 234 229 228 221 227 240 249 261 255 256 251 258 262 262 263
225 244 242 249 232 228 204 258 255 255 256 266 273 273 275 282 280 280 281 278 272 249 245 255 257 264 275 265 258 252 248 239 240 237 228 225 224 213 228 235 258 266 254 252 258 263 263 265 267
222 225 235 245 222 234 242 264 265 270 268 268 269 269 270 271 271 280 284 274 250 250 255 250 262 264 263 250 246 237 232 231 228 224 222 216 209 222 240 243 262 272 255 258 260 268 272 272 265
257 242 269 209 209 233 244 264 267 253 251 263 268 267 262 265 272 274 277 255 247 256 244 252 267 256 254 237 224 221 211 202 204 203 208 218 224 231 241 256 271 276 278 276 272 271 268 261 248
252 266 268 293 284 256 246 253 264 264 262 254 259 260 259 265 276 280 260 238 242 252 249 252 255 250 243 234 221 219 213 208 215 218 229 244 229 242 257 265 274 275 280 276 270 268 260 247 236
233 237 253 260 305 290 296 282 284 276 260 264 272 273 275 274 278 284 275 244 241 244 249 248 237 231 233 221 209 205 212 219 227 227 228 227 243 250 255 259 270 277 274 271 268 257 248 244 234
248 247 244 251 259 260 212 277 265 268 265 265 248 256 264 275 275 275 276 237 234 237 231 226 225 224 211 204 202 201 209 202 199 204 213 222 239 246 250 261 269 275 267 266 263 250 237 228 222
253 253 236 237 235 248 250 293 267 260 261 250 253 262 268 265 272 274 263 245 230 220 215 212 213 203 193 190 193 185 180 188 207 214 210 218 227 241 255 273 279 265 265 258 245 232 220 221 220
318 242 240 258 226 251 213 202 272 246 251 251 224 247 253 272 280 271 247 222 205 202 203 200 189 185 178 178 176 176 189 191 193 197 206 213 236 262 273 278 269 261 247 246 232 230 231 237 235
221 58 248 253 212 236 170 208 235 256 272 230 237 249 256 260 265 256 232 196 193 194 190 181 181 174 169 169 171 178 186 195 193 196 210 235 259 273 268 263 245 233 236 236 234 230 240 239 238
188 180 194 192 205 241 261 230 244 231 260 268 267 256 268 265 263 235 204 189 187 183 179 178 176 171 165 171 179 184 196 191 188 201 229 254 261 254 247 219 205 210 207 214 227 222 221 211 195
305 220 201 292 273 275 228 274 279 276 277 274 267 263 257 264 228 196 183 182 178 175 175 175 168 167 170 176 180 183 195 204 202 211 240 264 246 232 195 187 187 173 145 141 138 153 177 191 201
198 246 188 197 207 240 252 251 236 232 248 273 268 256 219 186 179 177 178 176 171 170 166 165 168 169 175 181 186 185 183 173 184 222 271 241 205 166 164 171 170 159 150 138 140 164 185 201 212
240 217 193 160 210 221 257 251 196 253 244 274 283 251 175 168 174 174 172 169 166 165 162 164 166 168 170 169 156 137 151 165 223 249 256 198 179 166 165 172 170 165 152 150 166 189 180 164 164
269 282 175 214 234 248 241 247 304 252 288 293 294 174 164 170 169 169 169 165 164 160 160 162 161 163 158 150 156 158 169 197 223 257 187 177 152 136 144 152 151 166 181 194 181 184 181 177 185